Ortonville, MN

7:53 AM CST on January 17, 2018 (GMT -0600)
Ortonville Municipal-Martinson

Weather History for KVVV - January, 2013

Change the Weather History Date:

Sunday, January 13, 2013

  Actual Average (KAQP) Record (KAQP)
Temperature  
Mean Temperature 6 °F -  
Max Temperature 12 °F 17 °F 33 °F (2014)
Min Temperature 0 °F 1 °F -27 °F (2009)
Degree Days  
Heating Degree Days 59    
Moisture  
Dew Point -2 °F    
Average Humidity 72    
Maximum Humidity 85    
Minimum Humidity 62    
Precipitation  
Precipitation 0.00 in - - ()
Sea Level Pressure  
Sea Level Pressure 30.15 in    
Wind  
Wind Speed 11 mph (NNW)    
Max Wind Speed 17 mph    
Max Gust Speed 23 mph    
Visibility 10 miles    
Events Snow    
Averages and records for this station are not official NWS values.
T = Trace of Precipitation, MM = Missing Value Source: NWS Daily Summary

Daily Weather History Graph

Daily Weather History Graph

Search for Another Location

Airport or City:

Trip Planner

Search our weather history database for the weather conditions in past years. The results will help you decide how hot, cold, wet, or windy it might be!

Date:

Astronomy

Jan. 13, 2013 Rise Set
Actual Time 8:02 AM CST 5:07 PM CST
Civil Twilight 7:29 AM CST 5:40 PM CST
Nautical Twilight 6:52 AM CST 6:16 PM CST
Astronomical Twilight 6:17 AM CST 6:52 PM CST
Moon 8:53 AM CST (1/13) 7:56 PM CST (1/13)
Length of Visible Light 10h 11m
Length of Day
9h 04m
Waxing Crescent, 5% of the Moon is Illuminated
Jan 13
Waxing Crescent
Jan 18
First Quarter
Jan 26
Full
Feb 3
Last Quarter
Feb 10
New

Hourly Weather History & Observations

Time (CST) Temp. Windchill Dew Point Humidity Pressure Visibility Wind Dir Wind Speed Gust Speed Precip Events Conditions
12:13 AM 1.4 °F -16.9 °F -2.2 °F 85% 30.11 in 3.0 mi NNW 13.8 mph - N/A Snow Light Snow
12:34 AM 1.4 °F -18.8 °F -4.0 °F 78% 30.11 in 5.0 mi NNW 17.3 mph 21.9 mph N/A   Haze
12:54 AM 1.4 °F -17.6 °F -4.0 °F 78% 30.10 in 7.0 mi NNW 15.0 mph - N/A   Overcast
1:14 AM 1.4 °F -16.1 °F -5.8 °F 72% 30.10 in 10.0 mi NNW 12.7 mph 21.9 mph N/A   Overcast
1:34 AM 1.4 °F -18.8 °F -5.8 °F 72% 30.11 in 10.0 mi NNW 17.3 mph 20.7 mph N/A   Overcast
1:54 AM 1.4 °F -17.6 °F -5.8 °F 72% 30.10 in 10.0 mi NNW 15.0 mph 23.0 mph N/A   Overcast
2:14 AM -0.4 °F -19.9 °F -5.8 °F 78% 30.10 in 10.0 mi NNW 15.0 mph - N/A   Overcast
2:34 AM -0.4 °F -19.2 °F -5.8 °F 78% 30.11 in 10.0 mi NNW 13.8 mph 18.4 mph N/A   Overcast
2:53 AM -0.4 °F -19.2 °F -5.8 °F 78% 30.11 in 10.0 mi NNW 13.8 mph 19.6 mph N/A   Overcast
3:14 AM -0.4 °F -21.2 °F -7.6 °F 72% 30.11 in 10.0 mi NNW 17.3 mph 20.7 mph N/A   Overcast
3:34 AM -0.4 °F -19.2 °F -7.6 °F 72% 30.11 in 10.0 mi NNW 13.8 mph 19.6 mph N/A   Overcast
3:53 AM -0.4 °F -18.4 °F -7.6 °F 72% 30.11 in 10.0 mi NNW 12.7 mph 18.4 mph N/A   Overcast
4:14 AM -0.4 °F -20.5 °F -7.6 °F 72% 30.12 in 10.0 mi NNW 16.1 mph 20.7 mph N/A   Overcast
4:34 AM -0.4 °F -17.6 °F -7.6 °F 72% 30.12 in 10.0 mi NNW 11.5 mph 20.7 mph N/A   Overcast
4:53 AM -0.4 °F -18.4 °F -7.6 °F 72% 30.12 in 10.0 mi NNW 12.7 mph 19.6 mph N/A   Overcast
5:14 AM -0.4 °F -20.5 °F -7.6 °F 72% 30.11 in 10.0 mi NNW 16.1 mph - N/A   Overcast
5:34 AM -0.4 °F -18.4 °F -7.6 °F 72% 30.11 in 10.0 mi NNW 12.7 mph - N/A   Mostly Cloudy
5:54 AM -0.4 °F -19.2 °F -7.6 °F 72% 30.12 in 10.0 mi NNW 13.8 mph 17.3 mph N/A   Clear
6:14 AM -0.4 °F -18.4 °F -7.6 °F 72% 30.12 in 10.0 mi NNW 12.7 mph - N/A   Clear
6:34 AM -0.4 °F -17.6 °F -7.6 °F 72% 30.12 in 10.0 mi NNW 11.5 mph - N/A   Clear
6:53 AM -0.4 °F -16.7 °F -7.6 °F 72% 30.14 in 10.0 mi NNW 10.4 mph - N/A   Scattered Clouds
7:14 AM -0.4 °F -14.7 °F -7.6 °F 72% 30.14 in 10.0 mi NNW 8.1 mph - N/A   Scattered Clouds
7:34 AM -0.4 °F -14.7 °F -7.6 °F 72% 30.15 in 10.0 mi NNW 8.1 mph - N/A   Clear
7:54 AM -0.4 °F -13.4 °F -7.6 °F 72% 30.15 in 10.0 mi NNW 6.9 mph - N/A   Clear
8:13 AM -0.4 °F -13.4 °F -7.6 °F 72% 30.16 in 10.0 mi NNW 6.9 mph - N/A   Clear
8:34 AM -0.4 °F -15.7 °F -7.6 °F 72% 30.17 in 10.0 mi NNW 9.2 mph - N/A   Clear
8:54 AM -0.4 °F -14.7 °F -7.6 °F 72% 30.17 in 10.0 mi NNW 8.1 mph - N/A   Clear
9:13 AM -0.4 °F -14.7 °F -7.6 °F 72% 30.18 in 10.0 mi NNW 8.1 mph - N/A   Clear
9:34 AM 1.4 °F -12.5 °F -7.6 °F 66% 30.18 in 10.0 mi NNW 8.1 mph - N/A   Clear
9:54 AM 1.4 °F -12.5 °F -5.8 °F 72% 30.18 in 10.0 mi NNW 8.1 mph - N/A   Clear
10:14 AM 3.2 °F -11.3 °F -5.8 °F 66% 30.18 in 10.0 mi NNW 9.2 mph - N/A   Clear
10:34 AM 3.2 °F -11.3 °F -5.8 °F 66% 30.18 in 10.0 mi NNW 9.2 mph - N/A   Clear
10:53 AM 3.2 °F -13.9 °F -5.8 °F 66% 30.17 in 10.0 mi NNW 12.7 mph - N/A   Clear
11:14 AM 3.2 °F -12.2 °F -5.8 °F 66% 30.16 in 10.0 mi NNW 10.4 mph - N/A   Clear
11:34 AM 6.8 °F -8.6 °F -2.2 °F 67% 30.15 in 10.0 mi NNW 11.5 mph 16.1 mph N/A   Clear
11:54 AM 5.0 °F -9.1 °F -2.2 °F 72% 30.14 in 10.0 mi NNW 9.2 mph - N/A   Clear
12:13 PM 6.8 °F -7.8 °F -2.2 °F 67% 30.13 in 10.0 mi NNW 10.4 mph - N/A   Clear
12:34 PM 6.8 °F -5.9 °F -2.2 °F 67% 30.12 in 10.0 mi NNW 8.1 mph - N/A   Clear
12:54 PM 8.6 °F -5.5 °F -2.2 °F 62% 30.12 in 10.0 mi NNW 10.4 mph - N/A   Clear
1:14 PM 8.6 °F -4.7 °F -0.4 °F 67% 30.11 in 10.0 mi NNW 9.2 mph - N/A   Clear
1:33 PM 8.6 °F -4.7 °F -0.4 °F 67% 30.11 in 10.0 mi NNW 9.2 mph - N/A   Clear
1:54 PM 8.6 °F -1.3 °F 1.4 °F 73% 30.12 in 10.0 mi NNW 5.8 mph - N/A   Clear
2:14 PM 10.4 °F -0.4 °F 1.4 °F 67% 30.12 in 10.0 mi NNW 6.9 mph - N/A   Clear
2:34 PM 10.4 °F -0.4 °F 1.4 °F 67% 30.12 in 10.0 mi NNW 6.9 mph - N/A   Clear
2:54 PM 10.4 °F 0.8 °F 3.2 °F 73% 30.13 in 10.0 mi NNW 5.8 mph - N/A   Clear
3:14 PM 12.2 °F 4.3 °F 3.2 °F 67% 30.14 in 10.0 mi NNW 4.6 mph - N/A   Clear
3:34 PM 12.2 °F 2.9 °F 3.2 °F 67% 30.14 in 10.0 mi NNW 5.8 mph - N/A   Clear
3:54 PM 12.2 °F 6.1 °F 3.2 °F 67% 30.15 in 10.0 mi NNW 3.5 mph - N/A   Clear
4:14 PM 12.2 °F 6.1 °F 3.2 °F 67% 30.15 in 10.0 mi NNW 3.5 mph - N/A   Clear
4:34 PM 12.2 °F 2.9 °F 3.2 °F 67% 30.15 in 10.0 mi NNW 5.8 mph - N/A   Clear
4:54 PM 12.2 °F 1.7 °F 5.0 °F 73% 30.16 in 10.0 mi NNW 6.9 mph - N/A   Clear
5:14 PM 10.4 °F 0.8 °F 5.0 °F 79% 30.16 in 10.0 mi NNW 5.8 mph - N/A   Clear
5:34 PM 10.4 °F -0.4 °F 3.2 °F 73% 30.16 in 10.0 mi NNW 6.9 mph - N/A   Clear
5:53 PM 10.4 °F -1.5 °F 3.2 °F 73% 30.16 in 10.0 mi NNW 8.1 mph - N/A   Clear
6:14 PM 10.4 °F -1.5 °F 3.2 °F 73% 30.17 in 10.0 mi NNW 8.1 mph - N/A   Clear
6:34 PM 10.4 °F -1.5 °F 3.2 °F 73% 30.17 in 10.0 mi NNW 8.1 mph - N/A   Clear
6:54 PM 10.4 °F -0.4 °F 3.2 °F 73% 30.17 in 10.0 mi NNW 6.9 mph - N/A   Scattered Clouds
7:14 PM 10.4 °F 2.2 °F 3.2 °F 73% 30.17 in 10.0 mi NNW 4.6 mph - N/A   Mostly Cloudy
7:34 PM 10.4 °F 0.8 °F 3.2 °F 73% 30.18 in 10.0 mi NNW 5.8 mph - N/A   Overcast
7:54 PM 10.4 °F 4.0 °F 3.2 °F 73% 30.18 in 10.0 mi NNW 3.5 mph - N/A   Overcast
8:14 PM 10.4 °F 2.2 °F 3.2 °F 73% 30.18 in 10.0 mi NNW 4.6 mph - N/A   Overcast
8:34 PM 10.4 °F -0.4 °F 3.2 °F 73% 30.18 in 10.0 mi NNW 6.9 mph - N/A   Overcast
8:53 PM 10.4 °F 0.8 °F 3.2 °F 73% 30.18 in 10.0 mi NNW 5.8 mph - N/A   Overcast
9:14 PM 10.4 °F -0.4 °F 3.2 °F 73% 30.19 in 10.0 mi NNW 6.9 mph - N/A   Overcast
9:34 PM 10.4 °F -0.4 °F 3.2 °F 73% 30.19 in 10.0 mi NNW 6.9 mph - N/A   Overcast
9:54 PM 8.6 °F 0.1 °F 3.2 °F 79% 30.20 in 10.0 mi NNW 4.6 mph - N/A   Mostly Cloudy
10:14 PM 8.6 °F -2.6 °F 3.2 °F 79% 30.20 in 10.0 mi NNW 6.9 mph - N/A   Scattered Clouds
10:34 PM 8.6 °F -4.7 °F 1.4 °F 73% 30.21 in 10.0 mi NNW 9.2 mph - N/A Snow Light Snow
10:54 PM 6.8 °F -6.9 °F 1.4 °F 79% 30.22 in 10.0 mi NNW 9.2 mph - N/A   Clear
11:34 PM 5.0 °F -10.0 °F -0.4 °F 78% 30.23 in 10.0 mi NNW 10.4 mph - N/A   Clear
11:54 PM 5.0 °F -8.1 °F -0.4 °F 78% 30.23 in 10.0 mi NNW 8.1 mph - N/A   Clear